Tracking 31027 objects as of 19-Jul-2025
HD Live streaming from Space Station
objects crossing your sky now

SL-8 R/B

Track SL-8 R/B now!
10-day predictions


NORAD ID: 6271
Int'l Code: 1972-087J
Perigee: 1,473.5 km
Apogee: 1,600.2 km
Inclination: 74.0 °
Period: 116.6 minutes
Semi major axis: 7907 km
RCS: 6.2723 m2 (large)
Launch date: November 1, 1972
Source: Commonwealth of Independent States (former USSR) (CIS)
Launch site: PLESETSK MISSILE AND SPACE COMPLEX (PKMTR)

Note: This is a ROCKET BODY
Your satellite tracking list
Your tracking list is empty




NASA's NSSDC Master Catalog

Two Line Element Set (TLE):
1 06271U 72087J   25199.63492106 -.00000026  00000-0 -87755-4 0  9993
2 06271  74.0405  84.5390 0080154 220.5448 152.3406 12.34566224375449
Source of the keplerian elements: AFSPC